Regional Weather Roundup
Issued by NWS

Home | Current Version | Previous Version | Graphics & Text | Print | Product List | Glossary On
Versions: 1 2 3 4 5 6 7 8 9 10 11 12 13 14 15 16 17 18 19 20 21 22 23 24 25 26 27 28 29 30 31 32 33 34 35 36 37 38 39 40 41 42 43 44 45 46 47 48 49 50
000
ASUS44 KMEG 221700
RWRTN
TENNESSEE HOURLY STATE WEATHER ROUNDUP
NATIONAL WEATHER SERVICE MEMPHIS TN
1200 PM CDT WED OCT 22 2014

TNZ002-004-019-021-049-052-054-088>092-221800-
WEST TENNESSEE

CITY           SKY/WX    TMP DP  RH WIND       PRES   REMARKS
MEMPHIS INTL   SUNNY     64  42  44 NE9       30.25F
JACKSON        SUNNY     62  41  46 NE10      30.26F
DYERSBURG      SUNNY     61  37  41 NE6       30.30S
UNION CITY     SUNNY     57  43  58 E6        30.28S
PARIS          SUNNY     55  43  62 NE9       30.29S
LEXINGTON      SUNNY     59  39  47 NE12      30.25F
SAVANNAH       SUNNY     63  43  48 N12       30.25F
$$

TNZ008-025-027-028-033-062-065-066-221800-
NORTH MIDDLE TENNESSEE

CITY           SKY/WX    TMP DP  RH WIND       PRES   REMARKS
NASHVILLE      SUNNY     58  39  49 NE10      30.26F
CLARKSVILLE    SUNNY     58  41  53 N9        30.28F
COOKEVILLE     SUNNY     55  41  58 N8        30.24S
CROSSVILLE     SUNNY     53  38  56 VRB7      30.23S
$$

TNZ061-075-076-078-094-096-097-221800-
SOUTH MIDDLE TENNESSEE

CITY           SKY/WX    TMP DP  RH WIND       PRES   REMARKS
SHELBYVILLE    SUNNY     59  43  55 NE10      30.25S
$$

TNZ017-018-042-046-047-221800-
NORTHEAST TENNESSEE

CITY           SKY/WX    TMP DP  RH WIND       PRES   REMARKS
TRI CITIES     PTSUNNY   51  41  68 N7        30.21S
ELIZABETHTON   CLOUDY    48  39  71 VRB5      30.20S
$$

TNZ012-013-036-069-073-074-221800-
CENTRAL EAST TENNESSEE

CITY           SKY/WX    TMP DP  RH WIND       PRES   REMARKS
KNOXVILLE      MOSUNNY   57  40  52 N13       30.21F
OAK RIDGE      SUNNY     57  38  48 E8G17     30.24F
GATLINBURG     PTSUNNY   52  37  58 NE5       30.22F
MORRISTOWN     MOSUNNY   54  39  58 NE8       30.22F
$$

TNZ083-085-099-221800-
SOUTHEAST TENNESSEE

CITY           SKY/WX    TMP DP  RH WIND       PRES   REMARKS
CHATTANOOGA    MOSUNNY   60  41  49 N14       30.22S
$$

SKY/WX REPORTED AS FAIR MEANS FEW OR NO CLOUDS BELOW
12 THOUSAND FEET.




USA.gov is the U.S. government's official web portal to all federal, state and local government web resources and services.